Погода в Сальте

Аргентина     24°47′30″S   65°25′13″W
темп.,
°C
ветер,
м/с
пор.,
м/с
влажн.,
%
обл.,
%
осадки,
мм/ч
давл.,
гПа
погр.,
м
17 июня, чт
чт1700:00+2вюв1193100 0.1 1028228
03:00+2вюв119298 0.1 1028205
06:00+2вюв119197 0.0 1027201
09:00+2в118991 0.0 1028263
12:00+4в227589 0.0 1027662
15:00+5в227186 0.0 1023748
18:00+4всв127556 0.0 1023498
21:00+3всв128282 0.0 1026311
18 июня, пт
пт1800:00+2всв128797 0.0 1026385
03:00+2в129186 0.0 1026298
06:00+2в119086 0.0 1025227
09:00+1всв118871 0.0 1026304
12:00+6в226543 0.0 1024726
15:00+7вюв325937 0.0 1019850
18:00+5в227021 0.0 1020571
21:00+3ссв127985 0.0 1024178
19 июня, сб
сб1900:00+3ссв127976 0.0 1024399
03:00+2с118853 0.0 102574
06:000ссз119010 0.0 102524
09:00+2с11808 0.0 102759
12:00+10вюв22490 0.0 1023642
15:00+13вюв32404 0.0 1019957
18:00+10в235361 0.0 101999
21:00+5ссз11718 0.0 102313
20 июня, вс
вс2000:00+3ссз117765 0.0 102310
03:00+2ссз118067 0.0 102311
06:00+1ссз11846 0.0 102210
09:00+3сз017619 0.0 102347
12:00+11вюв224878 0.0 1019604
15:00+13вюв3242100 0.0 1014865
18:00+10всв225564 0.0 1014118
21:00+5с11761 0.0 101810
21 июня, пн
пн2100:00+3сз11820 0.0 101915
03:00+3ссз11800 0.0 101812
06:00+3сз11783 0.0 101810
09:00+5зсз11670 0.0 102047
12:00+14юв11400 0.0 1018494
15:00+16вюв32350 0.0 10151044
18:00+13в2246100 0.0 101656
21:00+8ссз2161100 0.0 102013